Location: Haliburton Scout Reserve
(45.0900°N, 78.3200°W)
Time: 09:00:18
(UTC-04:00)

S-56A Canister/Altair - Pass Details

Date: 05 February 2023
Orbit: 639 x 2493 km, 38.9° (Epoch: 27 March)

Event Time Altitude Azimuth Distance (km) Brightness Sun altitude
Rises 13:36:45 0° 265° (W) 3,072 10.9 27.1°
Reaches altitude 10° 13:38:56 10° 258° (WSW) 2,262 10.5 26.9°
Maximum altitude 13:43:50 43° 187° (S) 1,246 10.3 26.6°
Drops below altitude 10° 13:50:38 10° 118° (ESE) 3,139 10.8 26.2°
Sets 13:54:12 0° 113° (ESE) 4,417 11.4 26.0°
